Regional Weather Roundup
Issued by NWS New Orleans/Baton Rouge, LA

Home | Current Version | Previous Version | Text Only | Print | Product List | Glossary On
Versions: 1 2 3 4 5 6 7 8 9 10 11 12 13 14 15 16 17 18 19 20 21 22 23 24 25 26 27 28 29 30 31 32 33 34 35 36 37 38 39 40 41 42 43 44 45 46 47 48 49 50
488
ASUS44 KLIX 272210
RWRLIX
NEW ORLEANS REGIONAL WEATHER ROUNDUP
NATIONAL WEATHER SERVICE NEW ORLEANS LA
400 PM CST TUE JAN 27 2015

NOTE: "FAIR" INDICATES FEW OR NO CLOUDS BELOW 12,000 FEET WITH NO
      SIGNIFICANT WEATHER AND/OR OBSTRUCTIONS TO VISIBILITY.
      SKY/WX - SKY CONDITION AND SIGNIFICANT WEATHER.
      TMP - AIR TEMPERATURE.     DP    - DEWPOINT TEMPERATURE.
      RH  - RELATIVE HUMIDITY.   PRES  - PRESSURE.
      HI  - HEAT INDEX.          WCI   - WIND CHILL INDEX.

*  THESE STATIONS ARE NOT NWS OR FAA STATIONS AND ARE NOT UNDER
   NWS QUALITY CONTROL.

LAZ038-040-048-061>063-065>067-069-272300-
SOUTHEAST LOUISIANA

CITY           SKY/WX    TMP DP  RH WIND       PRES   REMARKS
N.O. AUDUBON     N/A     71  41  34 MISG        N/A
N.O. INTL ARPT SUNNY     73  38  27 NW12      30.08R
N.O. LAKEFRONT SUNNY     65  46  50 W10       30.08S
N.O. DOWNTOWN*   N/A    N/A N/A N/A NW6       30.08S
SLIDELL        SUNNY     74  34  23 W6        30.06R
BATON ROUGE    SUNNY     76  31  19 VRB7      30.09R
BOOTHVILLE     SUNNY     65  45  48 SW8       30.09R
BELLE CHASSE   SUNNY     73  34  23 NW8       30.07S
BOGALUSA*        N/A     74  31  20 N12       30.08R
GALLIANO*      CLEAR     72  46  39 MISG      30.09R
NEW ROADS*       N/A     72  37  27 NW10      30.10S
GONZALES*        N/A     75  37  25 NW8       30.08S
HAMMOND*       SUNNY     75  27  16 N12       30.09S
HOUMA*         SUNNY     75  39  27 W7        30.08S
PORT FOURCHON* CLEAR     66  50  55 SW9       30.13R

$$

MSZ070-080>082-272300-
SOUTHERN MISSISSIPPI

CITY           SKY/WX    TMP DP  RH WIND       PRES   REMARKS
MCCOMB         SUNNY     71  34  25 NW13      30.08S
GULFPORT       SUNNY     72  34  24 NW13      30.05R
BILOXI         SUNNY     64  47  54 SW8       30.05R
PASCAGOULA     SUNNY     70  35  27 NW7       30.04R
STENNIS ARPT*  SUNNY     72  21  15 NW9       30.06R

$$

COASTAL OBSERVATIONS
LAKE AND NEARSHORE STATIONS

STATION/POSITION TIME  TEMP    WIND        PRES    WAVE
                       AIR SEA DIR/SP/G            HT/PER
                 (UTC) (F)     (DEG/KT/KT) (MB)    (FT/S)
PASCAGOULA       2200   60     240/  8/ 10 1017.1
WAVELAND YACHT   2200   70     340/  9/ 12 1016.9
GRAND ISLE       2200   67 61  200/  5/  6 1019.3
SOUTHWEST PASS   2200   69 47  230/  5/  6 1019.3
NEW CANAL        2200   67 56  260/  4/  5 1018.9
SHELL BEACH      2200   65 56  300/ 10/ 11 1018.3

OFFSHORE STATIONS

STATION/POSITION TIME  TEMP    WIND        PRES    WAVE
                       AIR SEA DIR/SP/G            HT/PER
                 (UTC) (F)     (DEG/KT/KT) (MB)    (FT/S)
64 S DAUPHIN ISL 2109   62 67  320/ 12/ 14 1018.5    3/ 6

$$




USA.gov is the U.S. government's official web portal to all federal, state and local government web resources and services.